Location: Newark
(5.8900°S, 42.6378°W)
Time: 01:33:41
(UTC+00:00)

Vanguard 3 - All Passes

Search period start: 18 October 2019 00:00
Search period end: 28 October 2019 00:00
Orbit: 508 x 3262 km, 33.3° (Epoch: 17 October)

Date Brightness Start Highest point End Pass type
(mag) Time Alt. Az. Time Alt. Az. Time Alt. Az.
18 Oct - 00:36:23 10° WNW 00:37:31 11° NW 00:38:33 10° NW visible
18 Oct - 09:29:38 10° NNW 09:39:09 39° NE 09:54:11 10° ESE daylight
18 Oct - 11:40:31 10° WNW 11:53:57 80° SW 12:14:00 10° SE daylight
18 Oct - 13:56:37 10° W 14:12:36 40° SSW 14:30:27 10° SE daylight
18 Oct - 16:19:13 10° SW 16:34:07 25° S 16:46:49 10° SE daylight
18 Oct - 18:41:37 10° SW 18:54:57 27° S 19:04:07 10° ESE daylight
18 Oct - 20:59:14 10° SW 21:11:44 53° SSE 21:18:40 10° ENE visible
18 Oct - 23:16:40 10° WSW 23:24:09 33° NW 23:28:52 10° NNE visible
19 Oct - 08:18:08 10° N 08:24:23 19° NE 08:33:01 10° E daylight
19 Oct - 10:26:28 10° NW 10:37:37 73° NE 10:56:06 10° ESE daylight
19 Oct - 12:39:49 10° W 12:54:23 52° SSW 13:13:44 10° SE daylight
19 Oct - 14:59:18 10° WSW 15:14:54 29° SSW 15:30:15 10° SE daylight
19 Oct - 17:22:35 10° SW 17:36:54 25° S 17:47:55 10° SE daylight
19 Oct - 19:41:55 10° SW 19:55:52 38° SSE 20:04:20 10° E daylight
19 Oct - 21:59:05 10° WSW 22:10:23 75° NW 22:16:30 10° NE visible
20 Oct - 09:13:27 10° NNW 09:22:22 44° NE 09:37:11 10° ESE daylight
20 Oct - 11:24:32 10° WNW 11:37:02 71° SSW 11:56:31 10° SE daylight
20 Oct - 13:40:50 10° W 13:55:55 36° SSW 14:13:26 10° SE daylight
20 Oct - 16:02:53 10° SW 16:17:55 25° S 16:31:03 10° SE daylight
20 Oct - 18:24:01 10° SW 18:38:54 31° SSE 18:49:01 10° ESE daylight
20 Oct - 20:41:42 10° SW 20:55:38 66° SSE 21:03:13 10° ENE visible
20 Oct - 23:00:14 10° W 23:07:55 28° NW 23:12:52 10° NNE visible
21 Oct - 08:01:46 10° N 08:07:54 22° NE 08:16:46 10° E visible
21 Oct - 10:10:27 10° NW 10:20:47 82° NE 10:38:40 10° ESE daylight
21 Oct - 12:24:02 10° W 12:37:37 46° SSW 12:56:20 10° SE daylight
21 Oct - 14:43:27 10° WSW 14:58:31 28° S 15:13:49 10° SE daylight
21 Oct - 17:05:28 10° SW 17:20:47 27° S 17:32:39 10° ESE daylight
21 Oct - 19:24:11 10° SW 19:39:44 46° SSE 19:49:01 10° E daylight
21 Oct - 21:41:58 10° WSW 21:54:07 63° NW 22:00:46 10° NE visible
22 Oct - 08:57:23 10° NNW 09:05:41 50° NE 09:20:04 10° ESE daylight
22 Oct - 11:08:43 10° WNW 11:20:18 62° SSW 11:38:56 10° SE daylight
22 Oct - 13:25:11 10° WSW 13:39:23 33° SSW 13:56:23 10° SE daylight
22 Oct - 15:46:30 10° SW 16:01:42 26° S 16:15:20 10° SE daylight
22 Oct - 18:06:26 10° SW 18:22:43 36° SSE 18:33:46 10° E daylight
22 Oct - 20:24:10 10° SW 20:39:22 78° SSE 20:47:37 10° ENE daylight
22 Oct - 22:43:50 10° W 22:51:37 24° NW 22:56:47 10° N visible
23 Oct - 07:45:30 10° N 07:51:27 24° NE 08:00:22 10° E visible
23 Oct - 09:54:34 10° NW 10:04:06 88° SW 10:21:09 10° SE daylight
23 Oct - 12:08:25 10° W 12:21:03 41° SSW 12:38:52 10° SE daylight
23 Oct - 14:27:39 10° WSW 14:42:11 27° S 14:57:25 10° SE daylight
23 Oct - 16:48:21 10° SW 17:04:33 30° SSE 17:17:18 10° ESE daylight
23 Oct - 19:06:29 10° SW 19:23:26 54° SSE 19:33:31 10° ENE daylight
23 Oct - 21:24:52 10° WSW 21:37:43 54° NW 21:44:54 10° NE visible
24 Oct - 08:41:24 10° NW 08:49:06 57° NE 09:02:53 10° ESE daylight
24 Oct - 10:53:02 10° WNW 11:03:44 54° SSW 11:21:17 10° SE daylight
24 Oct - 13:09:40 10° WSW 13:22:59 30° SSW 13:39:20 10° SE daylight
24 Oct - 15:30:02 10° SW 15:45:27 27° S 15:59:38 10° ESE daylight
24 Oct - 17:48:51 10° SW 18:06:21 41° SSE 18:18:21 10° E daylight
24 Oct - 20:06:38 10° SW 20:22:55 90° NW 20:31:53 10° NE daylight
24 Oct - 22:27:30 10° W 22:35:15 22° NW 22:40:36 10° N visible
25 Oct - 07:29:21 10° NNW 07:35:02 27° NE 07:43:53 10° E visible
25 Oct - 09:38:48 10° WNW 09:47:36 77° SSW 10:03:35 10° SE daylight
25 Oct - 11:52:58 10° W 12:04:38 36° SSW 12:21:21 10° SE daylight
25 Oct - 14:11:51 10° SW 14:25:55 26° S 14:41:05 10° SE daylight
25 Oct - 16:31:11 10° SW 16:48:11 33° SSE 17:01:51 10° ESE daylight
25 Oct - 18:48:49 10° SW 19:06:57 63° SSE 19:17:53 10° ENE daylight
25 Oct - 21:07:46 10° WSW 21:21:11 47° NW 21:28:57 10° NNE visible
26 Oct - 08:25:33 10° NW 08:32:38 67° NE 08:45:41 10° ESE daylight
26 Oct - 10:37:31 10° W 10:47:22 46° SSW 11:03:35 10° SE daylight
26 Oct - 12:54:15 10° WSW 13:06:42 28° S 13:22:17 10° SE daylight
26 Oct - 15:13:32 10° SW 15:29:08 28° S 15:43:55 10° ESE daylight
26 Oct - 17:31:18 10° SW 17:49:50 47° SSE 18:02:47 10° E daylight
26 Oct - 19:49:08 10° WSW 20:06:19 79° NW 20:16:02 10° NE daylight
26 Oct - 22:11:16 10° W 22:18:51 19° NW 22:24:17 10° N visible
27 Oct - 07:13:17 10° NNW 07:18:41 32° NE 07:27:21 10° ESE visible
27 Oct - 09:23:12 10° WNW 09:31:16 65° SSW 09:46:00 10° SE daylight
27 Oct - 11:37:39 10° WSW 11:48:23 31° SSW 12:03:49 10° SE daylight
27 Oct - 13:56:01 10° SW 14:09:41 26° S 14:24:48 10° SE daylight
27 Oct - 16:14:02 10° SW 16:31:41 37° SSE 16:46:16 10° E daylight
27 Oct - 18:31:12 10° SW 18:50:17 72° SSE 19:02:06 10° ENE daylight
27 Oct - 20:50:44 10° WSW 21:04:34 41° NW 21:12:53 10° NNE visible
